BEIDOU-3 M12 (C26)

Last updated on Tue Dec 16 2025 00:03:25 GMT+0000 (Coordinated Universal Time)

1 43602U 18067A 25349.26921036 .00000114 00000+0 00000+0 0 9993 2 43602 54.1832 187.2773 0009186 40.8820 319.2533 1.86227716 49695
UTC large
Height (km)
Speed (km/s)
/
Latitude / Longitude
Inclination (degrees)
Orbital Period (minutes)
Azimuth
Elevation
Range (km)
Doppler Factor

Next 0 passes for location: London (51.5072 / 0.1276)

Sorry there are no passes over London.